Regional Weather Roundup
Issued by NWS Pendleton, OR

Home | Current Version | Previous Version | Text Only | Print | Product List | Glossary On
Versions: 1 2 3 4 5 6 7 8 9 10 11 12 13 14 15 16 17 18 19 20 21 22 23 24 25 26 27 28 29 30 31 32 33 34 35 36 37 38 39 40 41 42 43 44 45 46 47 48 49 50
287
ASUS46 KPDT 302225
RWRPDT
PENDLETON REGIONAL WEATHER ROUNDUP
NATIONAL WEATHER SERVICE PENDLETON OREGON
300 PM PDT SAT APR 30 2016

NOTE: FAIR INDICATES FEW OR NO CLOUDS BELOW 12,000 FEET WITH NO
SIGNIFICANT WEATHER AND/OR OBSTRUCTIONS TO VISIBILITY.

# INDICATES UNOFFICIAL STATION AND DATA

WAZ520-302310-
EAST SLOPES OF WASHINGTON CASCADES

CITY            SKY/WX      TMP DP  RH  WIND    PRES   REMARKS
#CLE ELUM HS    N/A         65  37  35  W7      30.16S
#CLE ELUM 2NW   N/A         63  35  35  W7      N/A
#CLE ELUM LAKE  N/A         62  39  43  W1      30.22S
#GLENWOOD       N/A         68  42  39  SW1     30.21F
#MANASTASH CYN  N/A         67  29  24  NW2     30.17F
#NELSON 3SW     N/A         62  38  41  CALM    30.42R
#NILE           N/A         67  35  30  S2      29.46F
#RONALD 2NW     N/A         65  N/A N/A W1      30.10R
#TEANAWAY 4NE   N/A         68  43  40  SW5     N/A
#TROUT LAKE 1NE N/A         66  44  45  SW7     30.20S
$$

WAZ521-302310-
SIMCOE HIGHLANDS

CITY            SKY/WX      TMP DP  RH  WIND    PRES   REMARKS
#BICKLETON HS   N/A         59  25  27  N7      N/A
#CENTERVILLE 1SWN/A         65  40  40  S7      30.16F
#GOLDENDALE 1NE N/A         67  28  23  W1      N/A
#GOODNOE HILLS  N/A         74  39  28  W5      30.09F
#LYLE 6NE       N/A         65  42  43  SW6     30.19F
$$

WAZ026-302310-
KITTITAS VALLEY

CITY            SKY/WX      TMP DP  RH  WIND    PRES   REMARKS
ELLENSBURG AP   SUNNY       72  32  23  SE13    30.20F
YTC-OPS AREA    SUNNY       61  26  26  NW8     30.24F
#ELLENSBURG CWU N/A         70  34  26  S7      30.12F
#ELLENSBURG 3NE N/A         67  37  33  N1      30.19S
#ELLENSBURG     N/A         72  34  25  E5      N/A
#KITTITAS 3S    N/A         68  37  32  CALM    30.17F
#THORP 6N       N/A         64  39  40  W6      30.23F
$$

WAZ027-302310-
YAKIMA VALLEY

CITY            SKY/WX      TMP DP  RH  WIND    PRES   REMARKS
SUNNYSIDE AP    SUNNY       71  38  30  NW6     30.19F
YAKIMA AIRPORT  PTCLDY      74  31  20  VRB3    30.19F
YAKIMA-VAGABOND SUNNY       73  27  18  N13     30.17F
#DONALD 2NE     N/A         80   0   4  E1      29.03F
#GRANDVIEW      N/A         71  32  24  NE2     30.19F
#NACHES 2SW     N/A         71  38  30  CALM    30.23S
#TERRACE HTS    N/A         80  34  19  N5      30.14F
#TOPPENISH      N/A         70  36  29  CALM    30.10F
#WEST VALLEY    N/A         71  34  26  CALM    30.16F
#W YAKIMA       N/A         70  32  24  NE2     30.18F
#WHITE SWAN 5E  N/A         71  35  27  CALM    30.20F
#WILEY CITY 3W  N/A         72  27  19  CALM    30.17F
$$

WAZ028-302310-
LOWER COLUMBIA BASIN...WASHINGTON

CITY            SKY/WX      TMP DP  RH  WIND    PRES   REMARKS
HANFORD         MOSUNNY     73  30  20  N10     30.21F
PASCO           MOSUNNY     73  43  34  N10     30.20S
PROSSER AWOS    N/A         73  36  26  N7      30.21F
RICHLAND AWOS   PTCLDY      75  41  29  N15     30.19F
#BENTON CITY    N/A         70  37  30  VRB8    30.10F
#CONNELL 5N     N/A         64  49  58  N7      30.21S
#CONNELL 5NW    N/A         63  50  62  E2      30.17S
#ELTOPIA 6NW    N/A         69  53  57  CALM    29.17S
#KAHLOTUS       N/A         60  46  60  S10     30.21S
#KENNEWICK 3S   N/A         72  44  37  N2      30.20F
#PATERSON       N/A         70  40  34  W2      30.17F
#SAGEMOOR 2W    N/A         70  49  47  NE1     30.04F
#TOUCHET 2S     N/A         68  51  55  E2      30.18S
#WEST PASCO     N/A         73  45  37  N6      30.27F
$$

WAZ029-302310-
FOOTHILLS OF THE BLUES...WASHINGTON

CITY            SKY/WX      TMP DP  RH  WIND    PRES   REMARKS
WALLA WALLA AP  MOCLDY      63  44  50  E6      30.22F
#CLYDE 6NW      N/A         61  47  60  NE7     30.20R
#DAYTON SCHOOL  N/A         59  40  49  N2      30.23F
#LOWDEN 2SE     N/A         66  48  52  E3      30.17S
#PLEASANT VIEW 1N/A         61  46  58  CALM    30.26S
#PRESCOTT       N/A         62  47  58  CALM    30.20S
#SUDBURY        N/A         57  N/A N/A CALM    N/A
#WHITMAN COLLEGEN/A         63  44  50  N2      30.25F
#WAITSBURG 5S   N/A         59  45  60  E3      30.32S
#WAITSBURG 8N   N/A         65  23  20  S1      30.03F
#WALLA WALLA U  N/A         65  45  48  S1      30.20F
#WHITMAN MISSIONN/A         67  47  49  CALM    30.22S
$$

WAZ030-302310-
BLUE MOUNTAINS...WASHINGTON

CITY            SKY/WX      TMP DP  RH  WIND    PRES   REMARKS
#DIXIE 5SE      N/A         45  40  82  S6      30.16F
$$

ORZ009-041-WAZ024-302310-
COLUMBIA RIVER GORGE

CITY            SKY/WX      TMP DP  RH  WIND    PRES   REMARKS
HOOD RIVER AP   SUNNY       70  41  35  NW10    30.22S
THE DALLES AP   SUNNY       74  34  23  VRB6    30.19F
#ARLINGTON AIRPON/A         70  38  31  NE5     30.19F
#CELILO DOT     N/A         75  44  33  CALM    N/A
#MARYHILL 2W    N/A         69  40  35  S2      N/A
#MOSIER 1S      N/A         68  34  28  N7      30.21S
#MURDOCK        N/A         70  44  39  NW9     30.15F
#RUFUS DOT      N/A         73  38  28  W8      N/A

$$

ORZ510-302310-
NORTH CENTRAL OREGON

CITY            SKY/WX      TMP DP  RH  WIND    PRES   REMARKS
#ANTELOPE       N/A         60  38  44  NE3     30.11F
#COW CYN RST AREN/A         61  33  35  N10     N/A
#DUFUR 9E       N/A         62  37  39  NE8     30.27F
#GRASS VALLEY   N/A         62  37  39  N5      N/A
#GRASS VALLEY 1SN/A         65  38  37  E7      30.15F
#KENT DOT       N/A         62  31  31  N9      N/A
#MAUPIN SCHOOL  N/A         69  38  32  E6      30.22F
#MORO SCHOOL    N/A         66  42  42  CALM    30.21F
#SHANIKO 5WSW   N/A         60  28  29  N9      N/A
#TYGH VALLEY 2NEN/A         69  40  35  NE5     30.19F
#WAPANITIA AIRPON/A         66  42  42  N7      30.23F
#WASCO DOT      N/A         71  40  32  N6      N/A
#WASCO 5NE      N/A         68  42  39  CALM    30.20F
$$

ORZ511-302310-
CENTRAL OREGON

CITY            SKY/WX      TMP DP  RH  WIND    PRES   REMARKS
BEND AIRPORT    MOCLDY      61  32  33  N10     30.19F
MADRAS AIRPORT  SUNNY       63  34  34  N9      30.23F
PRINEVILLE AP   SUNNY       63  32  31  N12     30.19F
REDMOND AIRPORT MOSUNNY     64  34  33  N13     30.20F
#ASHWOOD SCHOOL N/A         62  35  36  NE10    30.16F
#BEND 1SW       N/A         56  36  47  NE3     N/A
#BEND-AWBREY    N/A         62  38  41  N3      30.22F
#BEND-KIM LN    N/A         60  39  46  N2      30.19F
#CULVER         N/A         61  37  41  NW6     30.18F
#LAKE BILLY CHINN/A         61  N/A N/A E12     30.22F
#POWELL BUTTE 3EN/A         60  35  39  NE8     N/A
#POWELL BUTTE   N/A         64  38  38  N8      30.05F
#PRINEVILLE 3N  N/A         61  38  42  N12     30.18F
#WARM SPRINGS   N/A         67  38  34  N5      30.17F

$$


ORZ509-302310-
EAST SLOPES OF OREGON CASCADES

CITY            SKY/WX      TMP DP  RH  WIND    PRES   REMARKS
SISTERS AWOS    N/A         59  34  39  N8      30.18S
#BLUE BOX PASS  N/A         55  N/A N/A NW2     N/A
#BLACK BUTTE RNCN/A         59  35  40  CALM    30.22F
#CAMP SHERMAN   N/A         65  32  29  NW2     30.27F
#LA PINE 4NW    N/A         56  34  43  E3      30.27F
#LAVA BUTTE DOT N/A         55  29  37  NE1     N/A
#SISTERS AIRPOR N/A         59  41  51  N7      30.17S
#SISTERS ODOT   N/A         59  N/A N/A W3      N/A
#SISTERS 3N     N/A         59  36  42  NE3     30.17F
#SUNRIVER       N/A         57  35  43  N3      30.27F
#TUMALO 3W      N/A         58  36  44  N7      30.11F
#WANOGA BUTTE D N/A         45  28  51  NE10    N/A

$$

ORZ044-302310-
LOWER COLUMBIA BASIN...OREGON

CITY            SKY/WX      TMP DP  RH  WIND    PRES   REMARKS
HERMISTON       PTCLDY      74  39  28  VRB7    30.19F
#BOARDMAN SCHOOLN/A         72  38  29  N5      30.18F
#BOARDMAN 8SW   N/A         71  41  34  NW2     30.18
#ECHO 8SW       N/A         69  39  33  VRB1    30.20F
#I-84 EX 198 DOTN/A         66  43  43  E10     N/A
#UMATILLA SCHOOLN/A         73  49  43  NE2     30.19R
#UMATILLA       N/A         74  41  30  CALM    30.12F
$$

ORZ507-302310-
NORTHERN FOOTHILLS OF THE BLUES

CITY            SKY/WX      TMP DP  RH  WIND    PRES   REMARKS
PENDLETON AIRPT MOCLDY      64  37  37  N7      30.20F
#ADAMS 3WNW     N/A         63  43  48  W2      30.21F
#ATHENA         N/A         61  43  51  N1      30.24S
#CAYUSE         N/A         60  42  51  NW2     30.20F
#HELIX SCHOOL   N/A         61  43  51  N1      30.21S
#HELIX 3N       N/A         60  44  55  N10     30.17S
#HELIX 6SW      N/A         62  43  50  N6      30.19F
#HOLDMAN 5SE    N/A         64  43  46  N3      30.19S
#HOLDMAN 6E     N/A         61  43  51  SE5     30.01F
#M-F FERNDALE   N/A         72  46  39  CALM    30.20F
#M-F GROVE ELEM N/A         65  39  38  CALM    30.19S
#M-FREEWATER 5SEN/A         64  45  50  CALM    30.20F
#PENDLETON DNTN N/A         68  40  36  CALM    30.22S
#PDT AQUATIC CTRN/A         65  40  40  N3      30.22S
#PDT SUNRIDGE   N/A         65  41  41  CALM    30.22F
#PENDLETON 7NW  N/A         66  46  48  W6      27.45S
#PILOT ROCK     N/A         62  40  44  N1      30.21F
#TUTUILLA       N/A         62  45  54  CALM    30.21F
#UMAPINE 2E     N/A         66  47  50  CALM    30.18F
#WESTON SCHOOL  N/A         60  40  47  CALM    30.12F

$$

ORZ508-302310-
SOUTHERN FOOTHILLS OF THE BLUES

CITY            SKY/WX      TMP DP  RH  WIND    PRES   REMARKS
#AJAX           N/A         64  32  30  N8      27.95F
#CONDON SCHOOL  N/A         61  38  42  N8      30.16F
#CONDON 5W      N/A         58  33  39  N8      30.20F
#FOSSIL SCHOOL  N/A         61  37  41  N7      30.15F
#HEPPNER EOC    N/A         63  37  38  E7      30.15F
#HEPPNER 4NE    N/A         59  37  44  N8      30.23S
#LEXINGTON 2SE  N/A         67  38  34  N10     30.16F
#MIKKALO        N/A         68  35  29  N6      30.30F
#RUGGS 5NE      N/A         61  36  39  CALM    30.43R
#RUGGS 2SW      N/A         59  37  44  N8      30.24F

$$

ORZ502-503-302310-
BLUE MOUNTAINS

CITY            SKY/WX      TMP DP  RH  WIND    PRES   REMARKS
MEACHAM         CLOUDY      52  37  56  VRB5    30.23F
#BATTLE MTN DOT N/A         50  42  74  N5      N/A
#GREENHORN 9SW  N/A         54  38  55  W5      26.38S
#HARDMAN 10S    N/A         61  34  36  N5      30.22S
#HEPPNER 15SE   N/A         51  37  59  W1      25.74F
#LADD CYN SMT   N/A         51  33  50  NW14    N/A
#LADD CREEK ODOTN/A         54  38  55  NE3     N/A
#LONG CREEK HS  N/A         53  42  66  CALM    N/A
#N POWDER DOT   N/A         58  41  53  N23     N/A
#PIKES PEAK     N/A         51  40  66  W3      27.99S
#TOLLGATE       N/A         43  40  89  NW1     30.07R
#TROY SCHOOL    N/A         57  47  69  CALM    30.06S
#UKIAH          N/A         55  40  57  NW6     30.15F
#WESTON 4E      N/A         53  42  66  N1      30.23S
$$

ORZ505-302310-
JOHN DAY BASIN

CITY            SKY/WX      TMP DP  RH  WIND    PRES   REMARKS
JOHN DAY        CLOUDY      60  35  39  N14     30.20F
#DAYVILLE SCHOOLN/A         62  35  36  N3      30.14F
#MITCHELL       N/A         58  40  51  N1      30.35S
#MITCHELL 8NW   N/A         60  36  41  N1      30.42F
#MONUMENT HS    N/A         64  34  33  N8      30.16S
#MT. VERNON 5SE N/A         54  36  50  N7      30.15F
#SPRAY SCHOOL   N/A         67  N/A N/A N2      N/A
#WINLOCK        N/A         63  34  34  W2      30.17F
$$

ORZ506-302310-
OCHOCO AND JOHN DAY HIGHLANDS

CITY            SKY/WX      TMP DP  RH  WIND    PRES   REMARKS
#HORSE RIDGE DO N/A         56  32  40  NW7     N/A
#KEYES SMT DOT  N/A         52  36  54  VRB12   N/A
#PAULINA SCHOOL N/A         59  36  42  N8      29.39F
#PINE MTN OBS   N/A         44  35  70  N5      N/A
#PRAIRIE CITY   N/A         59  38  45  N6      30.16S
#SENECA         N/A         51  N/A N/A N9      N/A
#SENECA 9NW     N/A         52  37  56  NE2     30.17F
$$

ORZ049-302310-
GRANDE RONDE VALLEY

CITY            SKY/WX      TMP DP  RH  WIND    PRES   REMARKS
LA GRANDE       MOCLDY      59  36  42  NW14    30.19F
#COVE           N/A         53  47  80  N7      30.22R
#COVE SCHOOL    N/A         52  44  74  CALM    30.21R
#COVE 6NW       N/A         39  35  85  CALM    29.63S
#ELGIN 3N       N/A         60  37  42  N2      30.16F
#ELGIN 1E       N/A         55  40  57  W7      N/A
#IMBLER SCHOOL  N/A         54  39  57  N10     30.16R
#ISLAND CITY 4N N/A         65  53  65  CALM    30.29F
#LADD CYN DOT   N/A         55  39  55  W12     N/A
#UNION 1S       N/A         56  41  57  N7      30.11S
$$

ORZ050-302310-
WALLOWA COUNTY

CITY            SKY/WX      TMP DP  RH  WIND    PRES   REMARKS
JOSEPH AIRPORT  LGT RAIN    46  41  83  NW9     30.21S
#ENTERPRISE AP  N/A         49  29  46  CALM    30.12S
#ENTERPRISE HS  N/A         47  42  83  NW7     30.20S
#IMNAHA SCHOOL  N/A         60  46  60  N6      30.17F
#IMNAHA 10S     N/A         55  46  72  E3      30.16S
#JOSEPH 3N      N/A         46  39  76  NW7     30.20S
#JOSEPH 3W      N/A         47  41  79  W1      30.01F
#LOSTINE        N/A         52  43  71  NW1     30.02R
#MT HOWARD 8000 N/A         32  31  96  NW6     30.18R
#PROMISE 1S     N/A         48  42  80  SW2     30.32F
#WALLOWA SCHOOL N/A         54  45  71  CALM    30.16S



$$



USA.gov is the U.S. government's official web portal to all federal, state and local government web resources and services.